Time,TemperatureF,DewpointF,PressureIn,WindDirection,WindDirectionDegrees,WindSpeedMPH,WindSpeedGustMPH,Humidity,HourlyPrecipIn,Conditions,Clouds,dailyrainin,SoftwareType,DateUTC
2013-09-02 00:09:00,70.6,59.0,29.71,NNE,30,0.0,-999.0,66,-99.99,,,0.00,weatherlink.com 1.10,2013-09-02 06:09:00,
2013-09-02 00:24:00,70.3,59.0,29.70,NNE,30,0.0,-999.0,67,-99.99,,,0.00,weatherlink.com 1.10,2013-09-02 06:24:00,
2013-09-02 00:39:00,70.1,59.0,29.69,NNE,30,0.0,-999.0,67,-99.99,,,0.00,weatherlink.com 1.10,2013-09-02 06:39:00,
2013-09-02 00:54:00,69.8,59.0,29.69,NNE,30,0.0,-999.0,68,-99.99,,,0.00,weatherlink.com 1.10,2013-09-02 06:54:00,
2013-09-02 01:09:00,69.8,59.0,29.69,NNE,30,0.0,-999.0,68,-99.99,,,0.00,weatherlink.com 1.10,2013-09-02 07:09:00,
2013-09-02 01:24:00,69.6,59.0,29.68,NNE,30,0.0,-999.0,69,-99.99,,,0.00,weatherlink.com 1.10,2013-09-02 07:24:00,
2013-09-02 01:39:00,69.4,59.0,29.68,NNE,30,0.0,-999.0,69,-99.99,,,0.00,weatherlink.com 1.10,2013-09-02 07:39:00,
2013-09-02 01:54:00,69.3,59.0,29.69,NNE,30,0.0,-999.0,70,-99.99,,,0.00,weatherlink.com 1.10,2013-09-02 07:54:00,
2013-09-02 02:09:00,68.9,59.0,29.68,NNE,30,0.0,-999.0,70,-99.99,,,0.00,weatherlink.com 1.10,2013-09-02 08:09:00,
2013-09-02 02:24:00,68.6,58.0,29.68,NNE,30,0.0,-999.0,70,-99.99,,,0.00,weatherlink.com 1.10,2013-09-02 08:24:00,
2013-09-02 02:39:00,68.3,59.0,29.67,NNE,30,0.0,-999.0,71,-99.99,,,0.00,weatherlink.com 1.10,2013-09-02 08:39:00,
2013-09-02 02:54:00,67.9,58.0,29.67,NNE,30,0.0,-999.0,71,-99.99,,,0.00,weatherlink.com 1.10,2013-09-02 08:54:00,
2013-09-02 03:09:00,67.6,58.0,29.67,NNE,30,0.0,-999.0,72,-99.99,,,0.00,weatherlink.com 1.10,2013-09-02 09:09:00,
2013-09-02 03:24:00,67.3,58.0,29.68,NNE,30,0.0,-999.0,72,-99.99,,,0.00,weatherlink.com 1.10,2013-09-02 09:24:00,
2013-09-02 03:39:00,67.3,58.0,29.69,NNE,30,0.0,-999.0,72,-99.99,,,0.00,weatherlink.com 1.10,2013-09-02 09:39:00,
2013-09-02 03:54:00,67.4,57.0,29.69,NNE,30,0.0,-999.0,70,-99.99,,,0.00,weatherlink.com 1.10,2013-09-02 09:54:00,
2013-09-02 04:09:00,67.8,56.0,29.69,NNE,28,0.0,-999.0,67,-99.99,,,0.00,weatherlink.com 1.10,2013-09-02 10:09:00,
2013-09-02 04:24:00,68.4,56.0,29.72,NNE,28,0.0,-999.0,64,-99.99,,,0.00,weatherlink.com 1.10,2013-09-02 10:24:00,
2013-09-02 04:39:00,68.9,56.0,29.72,NNE,28,0.0,-999.0,64,-99.99,,,0.00,weatherlink.com 1.10,2013-09-02 10:39:00,
2013-09-02 04:54:00,68.9,56.0,29.72,NNE,28,0.0,-999.0,64,-99.99,,,0.00,weatherlink.com 1.10,2013-09-02 10:54:00,
2013-09-02 05:09:00,68.8,56.0,29.72,NNE,28,0.0,-999.0,64,-99.99,,,0.00,weatherlink.com 1.10,2013-09-02 11:09:00,
2013-09-02 05:24:00,68.4,56.0,29.75,NNE,28,0.0,-999.0,65,-99.99,,,0.00,weatherlink.com 1.10,2013-09-02 11:24:00,
2013-09-02 05:39:00,68.3,56.0,29.75,NNE,28,0.0,-999.0,66,-99.99,,,0.00,weatherlink.com 1.10,2013-09-02 11:39:00,
2013-09-02 05:54:00,68.1,57.0,29.75,NNE,28,0.0,-999.0,67,-99.99,,,0.00,weatherlink.com 1.10,2013-09-02 11:54:00,
2013-09-02 06:09:00,67.8,56.0,29.75,NNE,28,0.0,-999.0,67,-99.99,,,0.00,weatherlink.com 1.10,2013-09-02 12:09:00,
2013-09-02 06:24:00,67.9,56.0,29.77,NNE,28,0.0,-999.0,66,-99.99,,,0.00,weatherlink.com 1.10,2013-09-02 12:24:00,
2013-09-02 06:39:00,67.8,57.0,29.77,NNE,28,0.0,-999.0,68,-99.99,,,0.00,weatherlink.com 1.10,2013-09-02 12:39:00,
2013-09-02 06:54:00,67.4,56.0,29.77,NNE,28,0.0,-999.0,67,-99.99,,,0.00,weatherlink.com 1.10,2013-09-02 12:54:00,
2013-09-02 07:09:00,67.3,57.0,29.78,NNE,28,0.0,-999.0,70,-99.99,,,0.00,weatherlink.com 1.10,2013-09-02 13:09:00,
2013-09-02 07:24:00,67.3,58.0,29.79,NNE,28,0.0,-999.0,71,-99.99,,,0.00,weatherlink.com 1.10,2013-09-02 13:24:00,
2013-09-02 07:39:00,67.8,58.0,29.80,NNE,28,0.0,-999.0,71,-99.99,,,0.00,weatherlink.com 1.10,2013-09-02 13:39:00,
2013-09-02 07:54:00,68.4,58.0,29.79,NNE,28,0.0,-999.0,69,-99.99,,,0.00,weatherlink.com 1.10,2013-09-02 13:54:00,
2013-09-02 08:10:00,69.8,57.0,29.79,NNE,28,0.0,-999.0,64,-99.99,,,0.00,weatherlink.com 1.10,2013-09-02 14:10:00,
2013-09-02 08:25:00,72.0,57.0,29.80,NNE,28,0.0,-999.0,59,-99.99,,,0.00,weatherlink.com 1.10,2013-09-02 14:25:00,
2013-09-02 08:40:00,73.7,57.0,29.79,NNE,28,0.0,-999.0,57,-99.99,,,0.00,weatherlink.com 1.10,2013-09-02 14:40:00,
2013-09-02 08:55:00,74.4,57.0,29.79,NNE,28,0.0,-999.0,55,-99.99,,,0.00,weatherlink.com 1.10,2013-09-02 14:55:00,
2013-09-02 09:10:00,75.4,56.0,29.79,NNE,30,0.0,-999.0,51,-99.99,,,0.00,weatherlink.com 1.10,2013-09-02 15:10:00,
2013-09-02 09:25:00,76.5,56.0,29.81,NNE,30,0.0,-999.0,50,-99.99,,,0.00,weatherlink.com 1.10,2013-09-02 15:25:00,
2013-09-02 09:40:00,78.3,56.0,29.80,NNE,32,0.0,-999.0,46,-99.99,,,0.00,weatherlink.com 1.10,2013-09-02 15:40:00,
2013-09-02 09:55:00,80.3,54.0,29.79,NE,37,0.0,-999.0,40,-99.99,,,0.00,weatherlink.com 1.10,2013-09-02 15:55:00,
2013-09-02 10:10:00,81.8,54.0,29.78,ESE,110,0.0,-999.0,39,-99.99,,,0.00,weatherlink.com 1.10,2013-09-02 16:10:00,
2013-09-02 10:25:00,83.2,54.0,29.78,NNE,27,2.0,-999.0,37,-99.99,,,0.00,weatherlink.com 1.10,2013-09-02 16:25:00,
2013-09-02 10:40:00,83.8,53.0,29.77,ENE,66,0.0,-999.0,35,-99.99,,,0.00,weatherlink.com 1.10,2013-09-02 16:40:00,
2013-09-02 10:55:00,84.1,53.0,29.77,SSE,150,0.0,-999.0,34,-99.99,,,0.00,weatherlink.com 1.10,2013-09-02 16:55:00,
2013-09-02 11:10:00,85.3,55.0,29.76,SSE,148,0.0,-999.0,35,-99.99,,,0.00,weatherlink.com 1.10,2013-09-02 17:10:00,
2013-09-02 11:25:00,85.3,55.0,29.76,WSW,250,0.0,-999.0,35,-99.99,,,0.00,weatherlink.com 1.10,2013-09-02 17:25:00,
2013-09-02 11:40:00,85.5,53.0,29.76,SSW,192,0.0,-999.0,33,-99.99,,,0.00,weatherlink.com 1.10,2013-09-02 17:40:00,
2013-09-02 11:55:00,87.6,54.0,29.75,West,271,0.0,-999.0,32,-99.99,,,0.00,weatherlink.com 1.10,2013-09-02 17:55:00,
2013-09-02 12:10:00,88.2,51.0,29.74,West,268,0.0,-999.0,28,-99.99,,,0.00,weatherlink.com 1.10,2013-09-02 18:10:00,
2013-09-02 12:25:00,88.4,51.0,29.73,West,280,0.0,-999.0,28,-99.99,,,0.00,weatherlink.com 1.10,2013-09-02 18:25:00,
2013-09-02 12:40:00,88.8,52.0,29.72,SE,128,0.0,-999.0,28,-99.99,,,0.00,weatherlink.com 1.10,2013-09-02 18:40:00,
2013-09-02 12:55:00,89.3,52.0,29.71,ENE,59,0.0,-999.0,28,-99.99,,,0.00,weatherlink.com 1.10,2013-09-02 18:55:00,
2013-09-02 13:10:00,89.7,52.0,29.71,SW,233,0.0,-999.0,27,-99.99,,,0.00,weatherlink.com 1.10,2013-09-02 19:10:00,
2013-09-02 13:25:00,90.5,52.0,29.70,ESE,104,0.0,-999.0,27,-99.99,,,0.00,weatherlink.com 1.10,2013-09-02 19:25:00,
2013-09-02 13:40:00,91.4,53.0,29.69,SW,226,0.0,-999.0,27,-99.99,,,0.00,weatherlink.com 1.10,2013-09-02 19:40:00,
2013-09-02 13:55:00,92.7,53.0,29.68,WNW,287,0.0,-999.0,26,-99.99,,,0.00,weatherlink.com 1.10,2013-09-02 19:55:00,
2013-09-02 14:10:00,92.9,52.0,29.65,ENE,78,0.0,-999.0,25,-99.99,,,0.00,weatherlink.com 1.10,2013-09-02 20:10:00,
2013-09-02 14:25:00,93.4,53.0,29.66,SSW,196,0.0,-999.0,25,-99.99,,,0.00,weatherlink.com 1.10,2013-09-02 20:25:00,
2013-09-02 14:40:00,93.4,52.0,29.64,East,93,0.0,-999.0,24,-99.99,,,0.00,weatherlink.com 1.10,2013-09-02 20:40:00,
2013-09-02 14:56:00,94.7,52.0,29.62,SE,131,0.0,-999.0,23,-99.99,,,0.00,weatherlink.com 1.10,2013-09-02 20:56:00,
2013-09-02 15:11:00,95.1,52.0,29.60,ESE,116,2.0,-999.0,23,-99.99,,,0.00,weatherlink.com 1.10,2013-09-02 21:11:00,
2013-09-02 15:26:00,95.1,51.0,29.60,SSE,154,0.0,-999.0,22,-99.99,,,0.00,weatherlink.com 1.10,2013-09-02 21:26:00,
2013-09-02 15:41:00,94.3,50.0,29.60,South,179,0.0,-999.0,22,-99.99,,,0.00,weatherlink.com 1.10,2013-09-02 21:41:00,
2013-09-02 15:56:00,94.7,50.0,29.59,South,176,0.0,-999.0,22,-99.99,,,0.00,weatherlink.com 1.10,2013-09-02 21:56:00,
2013-09-02 16:11:00,93.4,53.0,29.59,ENE,69,0.0,-999.0,25,-99.99,,,0.00,weatherlink.com 1.10,2013-09-02 22:11:00,
2013-09-02 16:26:00,91.4,52.0,29.58,SE,143,0.0,-999.0,26,-99.99,,,0.00,weatherlink.com 1.10,2013-09-02 22:26:00,
2013-09-02 16:41:00,90.3,53.0,29.58,SE,143,0.0,-999.0,28,-99.99,,,0.00,weatherlink.com 1.10,2013-09-02 22:41:00,
2013-09-02 16:56:00,89.7,52.0,29.59,SE,143,0.0,-999.0,28,-99.99,,,0.00,weatherlink.com 1.10,2013-09-02 22:56:00,
2013-09-02 17:11:00,89.3,50.0,29.59,NE,37,0.0,-999.0,26,-99.99,,,0.00,weatherlink.com 1.10,2013-09-02 23:11:00,
2013-09-02 17:26:00,89.3,51.0,29.61,East,96,0.0,-999.0,27,-99.99,,,0.00,weatherlink.com 1.10,2013-09-02 23:26:00,
2013-09-02 17:41:00,88.2,50.0,29.61,NE,52,0.0,-999.0,27,-99.99,,,0.00,weatherlink.com 1.10,2013-09-02 23:41:00,
2013-09-02 17:56:00,87.6,51.0,29.61,NE,52,0.0,-999.0,28,-99.99,,,0.00,weatherlink.com 1.10,2013-09-02 23:56:00,
2013-09-02 18:11:00,87.0,52.0,29.61,NE,52,0.0,-999.0,30,-99.99,,,0.00,weatherlink.com 1.10,2013-09-03 00:11:00,
2013-09-02 18:26:00,86.5,54.0,29.62,NE,52,0.0,-999.0,33,-99.99,,,0.00,weatherlink.com 1.10,2013-09-03 00:26:00,
2013-09-02 18:41:00,85.7,55.0,29.62,NE,52,0.0,-999.0,35,-99.99,,,0.00,weatherlink.com 1.10,2013-09-03 00:41:00,
2013-09-02 18:56:00,83.4,51.0,29.63,West,277,0.0,-999.0,33,-99.99,,,0.00,weatherlink.com 1.10,2013-09-03 00:56:00,
2013-09-02 19:11:00,81.8,50.0,29.66,NW,322,0.0,-999.0,33,-99.99,,,0.00,weatherlink.com 1.10,2013-09-03 01:11:00,
2013-09-02 19:26:00,81.2,50.0,29.66,West,264,0.0,-999.0,34,-99.99,,,0.00,weatherlink.com 1.10,2013-09-03 01:26:00,
2013-09-02 19:41:00,80.9,51.0,29.66,WSW,244,0.0,-999.0,35,-99.99,,,0.00,weatherlink.com 1.10,2013-09-03 01:41:00,
2013-09-02 19:56:00,80.7,51.0,29.66,WSW,239,0.0,-999.0,35,-99.99,,,0.00,weatherlink.com 1.10,2013-09-03 01:56:00,
2013-09-02 20:11:00,80.1,51.0,29.66,WSW,237,0.0,-999.0,36,-99.99,,,0.00,weatherlink.com 1.10,2013-09-03 02:11:00,
2013-09-02 20:26:00,79.2,51.0,29.66,South,185,0.0,-999.0,38,-99.99,,,0.00,weatherlink.com 1.10,2013-09-03 02:26:00,
2013-09-02 20:41:00,78.8,51.0,29.67,South,185,0.0,-999.0,38,-99.99,,,0.00,weatherlink.com 1.10,2013-09-03 02:41:00,
2013-09-02 20:56:00,79.0,52.0,29.68,East,100,0.0,-999.0,39,-99.99,,,0.00,weatherlink.com 1.10,2013-09-03 02:56:00,
2013-09-02 21:11:00,79.2,53.0,29.68,North,0,0.0,-999.0,41,-99.99,,,0.00,weatherlink.com 1.10,2013-09-03 03:11:00,
2013-09-02 21:26:00,78.8,54.0,29.66,SSE,167,0.0,-999.0,43,-99.99,,,0.00,weatherlink.com 1.10,2013-09-03 03:26:00,
2013-09-02 21:41:00,78.5,55.0,29.66,SE,140,0.0,-999.0,44,-99.99,,,0.00,weatherlink.com 1.10,2013-09-03 03:41:00,
2013-09-02 21:56:00,77.7,54.0,29.68,SE,140,0.0,-999.0,44,-99.99,,,0.00,weatherlink.com 1.10,2013-09-03 03:56:00,
2013-09-02 22:11:00,77.0,53.0,29.69,SE,140,0.0,-999.0,44,-99.99,,,0.00,weatherlink.com 1.10,2013-09-03 04:11:00,
2013-09-02 22:26:00,76.8,53.0,29.68,SW,230,0.0,-999.0,43,-99.99,,,0.00,weatherlink.com 1.10,2013-09-03 04:26:00,
2013-09-02 22:41:00,76.7,52.0,29.68,SW,230,1.0,-999.0,43,-99.99,,,0.00,weatherlink.com 1.10,2013-09-03 04:41:00,
2013-09-02 22:56:00,76.3,53.0,29.69,West,260,0.0,-999.0,44,-99.99,,,0.00,weatherlink.com 1.10,2013-09-03 04:56:00,
2013-09-02 23:11:00,75.8,52.0,29.69,WSW,250,0.0,-999.0,44,-99.99,,,0.00,weatherlink.com 1.10,2013-09-03 05:11:00,
2013-09-02 23:26:00,75.4,53.0,29.67,WSW,250,0.0,-999.0,46,-99.99,,,0.00,weatherlink.com 1.10,2013-09-03 05:26:00,
2013-09-02 23:41:00,74.9,53.0,29.68,WSW,250,0.0,-999.0,46,-99.99,,,0.00,weatherlink.com 1.10,2013-09-03 05:41:00,
2013-09-02 23:56:00,74.6,53.0,29.68,WSW,250,0.0,-999.0,47,-99.99,,,0.00,weatherlink.com 1.10,2013-09-03 05:56:00,